Newark, NJ

5:36 PM EDT on June 23, 2017 (GMT -0400)
Newark International

Weather History for KEWR - May, 2013

Change the Weather History Date:

Saturday, May 18, 2013

  Actual Average Record
Temperature  
Mean Temperature 61 °F 63 °F  
Max Temperature 63 °F 73 °F 94 °F (2017)
Min Temperature 58 °F 54 °F 43 °F (1955)
Degree Days  
Heating Degree Days 4 4  
Month to date heating degree days 102 101  
Since 1 July heating degree days 4592 4821  
Cooling Degree Days 0 2  
Month to date cooling degree days 16 23  
Year to date cooling degree days 19 35  
Growing Degree Days 10 (Base 50)    
Moisture  
Dew Point 49 °F    
Average Humidity 66    
Maximum Humidity 80    
Minimum Humidity 51    
Precipitation  
Precipitation T in 0.13 in 2.26 in (2011)
Month to date precipitation 3.55 2.26  
Year to date precipitation 14.36 17.06  
Snow  
Snow 0.00 in 0.00 in 0.00 in (2002)
Month to date snowfall 0.0 0.0  
Since 1 July snowfall 29.5 28.5  
Snow Depth 0.00 in    
Sea Level Pressure  
Sea Level Pressure 30.28 in    
Wind  
Wind Speed 4 mph (SSE)    
Max Wind Speed 9 mph    
Max Gust Speed 13 mph    
Visibility 10 miles    
Events Rain    
T = Trace of Precipitation, MM = Missing Value Source: NWS Daily Summary

Daily Weather History Graph

Daily Weather History Graph

Search for Another Location

Airport or City:

Trip Planner

Search our weather history database for the weather conditions in past years. The results will help you decide how hot, cold, wet, or windy it might be!

Date:

Astronomy

May. 18, 2013 Rise Set
Actual Time 5:36 AM EDT 8:10 PM EDT
Civil Twilight 5:05 AM EDT 8:41 PM EDT
Nautical Twilight 4:26 AM EDT 9:20 PM EDT
Astronomical Twilight 3:42 AM EDT 10:04 PM EDT
Moon 1:08 PM EDT (5/18) 1:30 AM EDT (5/18)
Length of Visible Light 15h 36m
Length of Day
14h 33m
First Quarter, 55% of the Moon is Illuminated
May 18
First Quarter
May 25
Full
May 31
Last Quarter
Jun 8
New
Jun 16
First Quarter

Hourly Weather History & Observations

Time (EDT) Temp. Dew Point Humidity Pressure Visibility Wind Dir Wind Speed Gust Speed Precip Events Conditions
12:51 AM 61.0 °F 45.0 °F 56% 30.20 in 10.0 mi South 3.5 mph - N/A   Scattered Clouds
1:21 AM 60.8 °F 44.6 °F 55% 30.21 in 10.0 mi SW 4.6 mph - N/A   Mostly Cloudy
1:51 AM 60.1 °F 44.1 °F 55% 30.20 in 10.0 mi Calm Calm - N/A   Mostly Cloudy
2:51 AM 61.0 °F 45.0 °F 56% 30.21 in 10.0 mi West 3.5 mph - N/A   Mostly Cloudy
3:51 AM 60.1 °F 43.0 °F 53% 30.22 in 10.0 mi Calm Calm - N/A   Overcast
4:51 AM 60.1 °F 45.0 °F 57% 30.23 in 10.0 mi Calm Calm - N/A   Mostly Cloudy
5:51 AM 59.0 °F 48.9 °F 69% 30.25 in 10.0 mi Calm Calm - N/A   Mostly Cloudy
6:51 AM 60.1 °F 46.0 °F 60% 30.27 in 10.0 mi Calm Calm - N/A   Overcast
7:51 AM 61.0 °F 45.0 °F 56% 30.29 in 10.0 mi Calm Calm - N/A   Overcast
8:51 AM 62.1 °F 46.0 °F 56% 30.30 in 10.0 mi Calm Calm - N/A   Overcast
9:51 AM 63.0 °F 46.9 °F 56% 30.31 in 10.0 mi Calm Calm - N/A   Overcast
10:51 AM 63.0 °F 48.0 °F 58% 30.31 in 10.0 mi SSE 5.8 mph - 0.00 in   Overcast
11:51 AM 63.0 °F 48.9 °F 60% 30.30 in 10.0 mi SE 6.9 mph - N/A   Overcast
12:51 PM 62.1 °F 50.0 °F 65% 30.30 in 10.0 mi SE 6.9 mph - 0.00 in   Overcast
1:51 PM 62.1 °F 50.0 °F 65% 30.30 in 10.0 mi ESE 5.8 mph - N/A   Overcast
2:51 PM 61.0 °F 52.0 °F 72% 30.29 in 10.0 mi ESE 6.9 mph - 0.00 in Rain Light Rain
3:51 PM 61.0 °F 52.0 °F 72% 30.30 in 10.0 mi SE 5.8 mph - 0.00 in   Overcast
4:51 PM 61.0 °F 54.0 °F 78% 30.30 in 10.0 mi SE 6.9 mph - N/A   Overcast
5:51 PM 60.1 °F 53.1 °F 78% 30.29 in 10.0 mi SSE 5.8 mph - N/A   Overcast
6:51 PM 60.1 °F 53.1 °F 78% 30.29 in 10.0 mi SSE 5.8 mph - N/A   Overcast
7:51 PM 60.1 °F 53.1 °F 78% 30.31 in 10.0 mi Calm Calm - N/A   Overcast
8:51 PM 59.0 °F 53.1 °F 81% 30.30 in 10.0 mi SE 5.8 mph - N/A   Overcast
9:51 PM 59.0 °F 53.1 °F 81% 30.31 in 10.0 mi SSE 3.5 mph - N/A   Overcast
10:51 PM 59.0 °F 52.0 °F 78% 30.30 in 10.0 mi SSE 5.8 mph - N/A   Overcast
11:51 PM 59.0 °F 51.1 °F 75% 30.30 in 10.0 mi SSE 3.5 mph - N/A   Overcast